St. Cloud, MN

2:28 AM CDT on June 28, 2017 (GMT -0500)
Saint Cloud Regional

Weather History for KSTC - October, 2010

Change the Weather History Date:

Monday, October 25, 2010

  Actual Average Record
Temperature  
Mean Temperature 55 °F 42 °F  
Max Temperature 60 °F 52 °F 81 °F (1989)
Min Temperature 49 °F 32 °F 15 °F (1976)
Degree Days  
Heating Degree Days 10 23  
Month to date heating degree days 317 452  
Since 1 July heating degree days 562 738  
Cooling Degree Days 0 0  
Month to date cooling degree days 2 0  
Year to date cooling degree days 606 463  
Growing Degree Days 4 (Base 50)    
Moisture  
Dew Point 52 °F    
Average Humidity 89    
Maximum Humidity 100    
Minimum Humidity 78    
Precipitation  
Precipitation 0.61 in 0.06 in 0.61 in (2010)
Month to date precipitation 1.10 2.12  
Year to date precipitation 28.88 25.16  
Snow  
Snow 0.00 in 0.10 in 0.90 in (1942)
Month to date snowfall 0.0 0.5  
Since 1 July snowfall 0.0 0.5  
Since 1 September snowfall 0.0 0.5  
Snow Depth 0.00 in    
Sea Level Pressure  
Sea Level Pressure 29.26 in    
Wind  
Wind Speed 11 mph (SE)    
Max Wind Speed 22 mph    
Max Gust Speed 28 mph    
Visibility 5 miles    
Events Fog , Rain    
T = Trace of Precipitation, MM = Missing Value Source: NWS Daily Summary

Daily Weather History Graph

Daily Weather History Graph

Search for Another Location

Airport or City:

Trip Planner

Search our weather history database for the weather conditions in past years. The results will help you decide how hot, cold, wet, or windy it might be!

Date:

Astronomy

Oct. 25, 2010 Rise Set
Actual Time 7:46 AM CDT 6:13 PM CDT
Civil Twilight 7:15 AM CDT 6:44 PM CDT
Nautical Twilight 6:40 AM CDT 7:18 PM CDT
Astronomical Twilight 6:06 AM CDT 7:53 PM CDT
Moon 7:30 PM CDT (10/25) 10:41 AM CDT (10/25)
Length of Visible Light 11h 28m
Length of Day
10h 27m
Waning Gibbous, 93% of the Moon is Illuminated
Oct 25
Waning Gibbous
Oct 30
Last Quarter
Nov 5
New
Nov 13
First Quarter
Nov 21
Full

Hourly Weather History & Observations

Time (CDT) Temp. Dew Point Humidity Pressure Visibility Wind Dir Wind Speed Gust Speed Precip Events Conditions
12:27 AM 48.2 °F 48.2 °F 100% 29.48 in 6.0 mi South 3.5 mph - N/A   Overcast
12:53 AM 48.9 °F 48.0 °F 97% 29.51 in 6.0 mi South 3.5 mph - N/A   Overcast
1:02 AM 48.2 °F 48.2 °F 100% 29.47 in 6.0 mi SSE 3.5 mph - N/A   Overcast
1:50 AM 50.0 °F 48.2 °F 94% 29.46 in 1.8 mi South 4.6 mph - N/A   Overcast
1:53 AM 50.0 °F 48.9 °F 96% 29.48 in 1.0 mi South 3.5 mph - N/A   Overcast
2:01 AM 50.0 °F 48.2 °F 94% 29.44 in 0.5 mi Calm Calm - N/A Fog Fog
2:39 AM 50.0 °F 48.2 °F 94% 29.45 in 0.2 mi SSE 3.5 mph - N/A Fog Fog
2:53 AM 50.0 °F 50.0 °F 100% 29.48 in 0.5 mi SSE 4.6 mph - N/A Fog Fog
3:42 AM 50.0 °F 50.0 °F 100% 29.42 in 1.5 mi SE 4.6 mph - N/A   Overcast
3:47 AM 50.0 °F 50.0 °F 100% 29.42 in 3.0 mi SE 4.6 mph - N/A   Overcast
3:53 AM 50.0 °F 50.0 °F 100% 29.42 in 4.0 mi SE 4.6 mph - N/A   Overcast
4:28 AM 50.0 °F 50.0 °F 100% 29.42 in 2.0 mi South 6.9 mph - N/A   Overcast
4:46 AM 50.0 °F 50.0 °F 100% 29.41 in 1.2 mi SSE 6.9 mph - N/A   Overcast
4:53 AM 50.0 °F 50.0 °F 100% 29.44 in 1.0 mi South 5.8 mph - N/A   Overcast
5:10 AM 50.0 °F 50.0 °F 100% 29.40 in 2.5 mi SSE 6.9 mph - N/A   Overcast
5:28 AM 50.0 °F 50.0 °F 100% 29.40 in 3.0 mi SSE 6.9 mph - N/A   Overcast
5:53 AM 50.0 °F 50.0 °F 100% 29.39 in 6.0 mi SSE 9.2 mph - N/A   Overcast
6:53 AM 50.0 °F 50.0 °F 100% 29.41 in 4.0 mi SE 9.2 mph - N/A   Overcast
7:53 AM 51.1 °F 50.0 °F 96% 29.39 in 5.0 mi SE 9.2 mph - N/A   Overcast
8:53 AM 51.1 °F 50.0 °F 96% 29.38 in 6.0 mi SE 9.2 mph - N/A   Overcast
9:17 AM 51.8 °F 51.8 °F 100% 29.34 in 5.0 mi SE 9.2 mph - N/A   Overcast
9:53 AM 52.0 °F 51.1 °F 97% 29.35 in 5.0 mi SE 8.1 mph - N/A   Overcast
10:53 AM 54.0 °F 52.0 °F 93% 29.32 in 5.0 mi SE 15.0 mph - N/A   Overcast
11:53 AM 55.9 °F 53.1 °F 90% 29.29 in 5.0 mi SE 13.8 mph 19.6 mph N/A   Overcast
12:08 PM 57.2 °F 53.6 °F 88% 29.25 in 6.0 mi SE 12.7 mph - N/A   Overcast
12:34 PM 57.2 °F 53.6 °F 88% 29.25 in 6.0 mi SE 10.4 mph - N/A   Mostly Cloudy
12:53 PM 57.9 °F 54.0 °F 87% 29.26 in 7.0 mi SE 10.4 mph - N/A   Mostly Cloudy
1:51 PM 59.0 °F 53.6 °F 82% 29.19 in 8.0 mi SE 18.4 mph 24.2 mph N/A   Mostly Cloudy
1:53 PM 59.0 °F 53.6 °F 82% 29.19 in 8.0 mi SE 19.6 mph 24.2 mph N/A   Mostly Cloudy
2:53 PM 60.1 °F 54.0 °F 80% 29.20 in 8.0 mi SE 16.1 mph 25.3 mph N/A   Scattered Clouds
3:53 PM 60.1 °F 54.0 °F 80% 29.20 in 9.0 mi SE 18.4 mph 26.5 mph 0.00 in   Scattered Clouds
4:53 PM 57.9 °F 54.0 °F 87% 29.22 in 8.0 mi SSE 13.8 mph - 0.00 in Rain Light Rain
5:53 PM 57.0 °F 55.0 °F 93% 29.16 in 5.0 mi East 10.4 mph 20.7 mph 0.02 in Rain Light Rain
6:53 PM 57.0 °F 55.0 °F 93% 29.13 in 9.0 mi ESE 9.2 mph - 0.01 in   Mostly Cloudy
7:53 PM 57.9 °F 54.0 °F 87% 29.12 in 10.0 mi ESE 16.1 mph 23.0 mph 0.00 in Rain Light Rain
8:53 PM 57.0 °F 54.0 °F 89% 29.11 in 10.0 mi ESE 10.4 mph 17.3 mph 0.00 in Rain Light Rain
9:37 PM 57.2 °F 53.6 °F 88% 29.05 in 10.0 mi ESE 11.5 mph - 0.00 in   Overcast
9:53 PM 57.0 °F 54.0 °F 89% 29.06 in 7.0 mi ESE 10.4 mph 17.3 mph 0.01 in Rain Light Rain
10:13 PM 57.2 °F 53.6 °F 88% 29.02 in 3.0 mi ESE 12.7 mph 20.7 mph 0.05 in Rain Rain
10:27 PM 55.4 °F 55.4 °F 100% 29.00 in 5.0 mi East 10.4 mph - 0.09 in Rain Light Rain
10:34 PM 55.4 °F 55.4 °F 100% 28.99 in 6.0 mi East 9.2 mph - 0.09 in Rain Light Rain
10:53 PM 55.9 °F 54.0 °F 93% 29.00 in 6.0 mi East 10.4 mph 17.3 mph 0.11 in Rain Light Rain
11:03 PM 55.4 °F 53.6 °F 94% 28.97 in 8.0 mi East 9.2 mph - 0.00 in Rain Light Rain
11:12 PM 55.4 °F 53.6 °F 94% 28.95 in 4.0 mi East 9.2 mph - 0.01 in Rain Light Rain
11:27 PM 55.4 °F 55.4 °F 100% 28.93 in 2.5 mi East 12.7 mph 20.7 mph 0.06 in Rain Rain
11:43 PM 57.2 °F 55.4 °F 94% 28.91 in 4.0 mi East 15.0 mph 23.0 mph 0.15 in Rain Rain
11:53 PM 57.0 °F 55.0 °F 93% 28.93 in 4.0 mi East 13.8 mph - 0.18 in Rain Rain